TimeMST,TemperatureF,Dew PointF,Humidity,Sea Level PressureIn,VisibilityMPH,Wind Direction,Wind SpeedMPH,Gust SpeedMPH,PrecipitationIn,Events,Conditions,WindDirDegrees,DateUTC
12:53 AM,-15.0,-18.0,86,30.44,10.0,NE,4.6,-,N/A,,Clear,40,2014-02-26 07:53:00
1:53 AM,-13.0,-16.1,86,30.40,10.0,Calm,Calm,-,N/A,,Clear,0,2014-02-26 08:53:00
2:53 AM,-11.9,-15.0,86,30.35,10.0,Calm,Calm,-,N/A,,Clear,0,2014-02-26 09:53:00
3:53 AM,-15.0,-18.9,82,30.33,10.0,WNW,4.6,-,N/A,,Clear,290,2014-02-26 10:53:00
4:53 AM,-18.0,-23.1,78,30.35,10.0,NW,8.1,-,N/A,,Clear,310,2014-02-26 11:53:00
5:53 AM,-17.0,-20.0,86,30.37,10.0,West,5.8,-,N/A,,Clear,260,2014-02-26 12:53:00
6:53 AM,-17.0,-20.0,86,30.39,7.0,West,5.8,-,N/A,,Clear,280,2014-02-26 13:53:00
7:53 AM,-9.0,-13.0,83,30.38,10.0,WNW,8.1,-,N/A,,Clear,300,2014-02-26 14:53:00
8:53 AM,-0.0,-6.0,76,30.35,10.0,WNW,11.5,-,N/A,,Clear,290,2014-02-26 15:53:00
9:53 AM,6.1,-0.9,73,30.31,10.0,NW,10.4,-,N/A,,Clear,310,2014-02-26 16:53:00
10:53 AM,15.1,6.1,68,30.30,10.0,WNW,9.2,-,N/A,,Clear,300,2014-02-26 17:53:00
11:53 AM,21.9,10.0,60,30.26,10.0,WNW,13.8,-,N/A,,Clear,300,2014-02-26 18:53:00
12:53 PM,25.0,10.0,53,30.23,10.0,NW,10.4,-,N/A,,Clear,310,2014-02-26 19:53:00
1:53 PM,28.0,12.9,53,30.19,10.0,West,8.1,-,N/A,,Clear,260,2014-02-26 20:53:00
2:53 PM,28.0,12.9,53,30.17,10.0,West,6.9,-,N/A,,Clear,260,2014-02-26 21:53:00
3:53 PM,28.9,15.1,56,30.17,10.0,North,5.8,-,N/A,,Clear,360,2014-02-26 22:53:00
4:53 PM,30.9,12.0,46,30.17,10.0,NW,5.8,-,N/A,,Clear,320,2014-02-26 23:53:00
5:53 PM,21.9,10.0,60,30.20,10.0,Calm,Calm,-,N/A,,Clear,0,2014-02-27 00:53:00
6:53 PM,19.0,12.0,74,30.22,10.0,WSW,6.9,-,N/A,,Clear,240,2014-02-27 01:53:00
7:53 PM,15.1,9.0,77,30.20,10.0,Calm,Calm,-,N/A,,Clear,0,2014-02-27 02:53:00
8:53 PM,17.1,12.0,81,30.17,10.0,SW,4.6,-,N/A,,Clear,230,2014-02-27 03:53:00
9:53 PM,14.0,10.0,84,30.15,10.0,WNW,3.5,-,N/A,,Clear,300,2014-02-27 04:53:00
10:53 PM,12.0,9.0,88,30.11,10.0,West,4.6,-,N/A,,Clear,270,2014-02-27 05:53:00
11:53 PM,8.1,5.0,87,30.07,10.0,WNW,5.8,-,N/A,,Clear,300,2014-02-27 06:53:00